FW9940 Weather Reports


time (UTC)temp
F
wind
direction
speed
knots
gust
knots
rain 1hr
in
rain 24hr
in
rain mn
in
humidity
%
barometer
mb
20260510143230 51 355 1.7 1.7 0.00 0.00 0.00 47 1016.6
20260510142730 51 327 1.7 1.7 0.00 0.00 0.00 45 1016.6
20260510141730 51 336 1.7 1.7 0.00 0.00 0.00 46 1016.6
20260510140731 50 332 1.7 1.7 0.00 0.00 0.00 47 1016.3
20260510135730 50 6 1.7 1.7 0.00 0.00 0.00 48 1016.3
20260510134730 49 0 1.7 1.7 0.00 0.00 0.00 48 1016.3
20260510133730 48 10 1.7 1.7 0.00 0.00 0.00 51 1016.3
20260510132730 48 357 1.7 1.7 0.00 0.00 0.00 52 1015.9
20260510131730 47 329 0.9 0.9 0.00 0.00 0.00 54 1015.9
20260510130730 46 313 1.7 1.7 0.00 0.00 0.00 54 1015.9
20260510125730 46 0 1.7 1.7 0.00 0.00 0.00 56 1015.9
20260510124730 45 327 1.7 1.7 0.00 0.00 0.00 62 1015.9
20260510123730 45 315 0.9 0.9 0.00 0.00 0.00 63 1015.6
20260510122731 45 342 0.9 0.9 0.00 0.00 0.00 67 1015.6
20260510122230 44 344 0.9 0.9 0.00 0.00 0.00 68 1015.6
20260510121230 44 352 0.9 0.9 0.00 0.00 0.00 70 1015.6
20260510120230 43 0 1.7 1.7 0.00 0.00 0.00 72 1015.2
20260510115230 42 1 0.9 0.9 0.00 0.00 0.00 75 1015.2
20260510114731 42 353 0.9 0.9 0.00 0.00 0.00 75 1015.2
20260510113730 41 354 0.9 0.9 0.00 0.00 0.00 76 1015.2
20260510112731 41 355 0.9 0.9 0.00 0.00 0.00 77 1014.9
20260510112230 41 347 0.9 0.9 0.00 0.00 0.00 78 1014.9
20260510111730 41 357 0.9 0.9 0.00 0.00 0.00 78 1014.6
20260510110730 40 347 0.9 0.9 0.00 0.00 0.00 79 1014.6
20260510105730 40 346 0.9 0.9 0.00 0.00 0.00 80 1014.6
20260510104730 40 342 0.9 0.9 0.00 0.00 0.00 81 1014.6
20260510103730 39 336 0.9 0.9 0.00 0.00 0.00 83 1014.2
20260510102731 38 332 0.0 0.0 0.00 0.00 0.00 87 1014.2
20260510102230 38 316 0.0 0.0 0.00 0.00 0.00 88 1013.9
20260510101230 38 6 0.0 0.0 0.00 0.00 0.00 88 1013.9
20260510100230 38 329 0.0 0.0 0.00 0.00 0.00 89 1013.9
20260510095730 38 335 0.0 0.0 0.00 0.00 0.00 89 1013.5
20260510094730 38 334 0.0 0.0 0.00 0.00 0.00 91 1013.5
20260510093731 37 345 0.0 0.0 0.00 0.00 0.00 93 1013.2
20260510092731 37 207 0.0 0.0 0.00 0.00 0.00 92 1013.2
20260510091730 37 221 0.0 0.0 0.00 0.00 0.00 92 1012.9
20260510090730 37 264 0.0 0.0 0.00 0.00 0.00 91 1012.9
20260510085731 38 258 0.0 0.0 0.00 0.00 0.00 90 1012.5
20260510085230 38 266 0.0 0.0 0.00 0.00 0.00 89 1012.5
20260510084230 38 212 0.0 0.0 0.00 0.00 0.00 89 1012.5
20260510083730 38 316 0.0 0.0 0.00 0.00 0.00 88 1012.5
20260510082730 39 298 0.0 0.0 0.00 0.00 0.00 87 1012.2
20260510081731 39 282 0.0 0.0 0.00 0.00 0.00 86 1011.9
20260510081231 39 282 0.0 0.0 0.00 0.00 0.00 86 1011.9
20260510080231 40 309 0.0 0.0 0.00 0.00 0.00 85 1011.9
20260510075231 40 110 0.0 0.0 0.00 0.00 0.00 84 1011.9
20260510074230 40 321 0.0 0.0 0.00 0.00 0.00 83 1011.9
20260510073230 41 100 0.0 0.0 0.00 0.00 0.00 82 1011.5
20260510072231 42 0 0.9 0.9 0.00 0.00 0.00 81 1011.5
20260510071731 42 46 0.9 0.9 0.00 0.00 0.00 80 1011.5
20260510070730 42 21 0.9 0.9 0.00 0.00 0.00 79 1011.5
20260510065731 42 30 1.7 1.7 0.00 0.00 0.00 79 1011.2
20260510065230 42 40 1.7 1.7 0.00 0.00 0.00 79 1011.2
20260510064230 43 31 1.7 1.7 0.00 0.00 0.00 79 1011.2
20260510063231 43 38 1.7 1.7 0.00 0.00 0.00 78 1011.2
20260510062231 43 41 1.7 1.7 0.00 0.00 0.00 77 1010.8
20260510061231 43 35 1.7 1.7 0.00 0.00 0.00 78 1010.8
20260510060231 43 32 1.7 1.7 0.00 0.00 0.00 78 1010.8
20260510055730 43 23 1.7 1.7 0.00 0.00 0.00 78 1010.8
20260510054731 44 36 1.7 1.7 0.00 0.00 0.00 78 1010.8
20260510053731 44 28 1.7 1.7 0.00 0.00 0.00 78 1010.8
20260510053231 44 26 1.7 1.7 0.00 0.00 0.00 78 1010.8
20260510052231 44 28 1.7 1.7 0.00 0.00 0.00 76 1010.5
20260510051232 45 21 1.7 1.7 0.00 0.00 0.00 76 1010.2
20260510050731 45 34 1.7 1.7 0.00 0.00 0.00 75 1010.2
20260510045731 45 20 1.7 1.7 0.00 0.00 0.00 74 1010.2
20260510045232 46 29 1.7 1.7 0.00 0.00 0.00 74 1009.8
20260510044232 46 48 1.7 1.7 0.00 0.00 0.00 74 1009.5
20260510043731 45 34 1.7 1.7 0.00 0.00 0.00 76 1009.5
20260510042731 46 42 1.7 1.7 0.00 0.00 0.00 76 1009.1
20260510042231 46 37 1.7 1.7 0.00 0.00 0.00 76 1009.1
20260510041231 46 45 1.7 1.7 0.00 0.00 0.16 77 1009.1
20260510040731 46 45 1.7 1.7 0.00 0.00 0.16 77 1009.1
20260510035731 46 42 2.6 2.6 0.00 0.00 0.16 76 1009.1
20260510034731 47 31 2.6 2.6 0.00 0.00 0.16 77 1008.8
20260510033731 47 39 1.7 1.7 0.00 0.00 0.16 77 1008.8
20260510032731 48 36 1.7 1.7 0.00 0.00 0.16 77 1008.5
20260510031732 49 42 1.7 1.7 0.00 0.00 0.16 77 1008.5
20260510031231 49 38 1.7 1.7 0.00 0.00 0.16 77 1008.5
20260510030231 50 39 1.7 1.7 0.00 0.00 0.16 76 1008.1
20260510025731 51 40 1.7 1.7 0.00 0.00 0.16 75 1008.1
20260510024731 50 30 1.7 1.7 0.00 0.00 0.16 74 1007.8
20260510023731 50 20 0.9 0.9 0.00 0.00 0.16 75 1007.8
20260510022731 50 13 0.9 0.9 0.00 0.00 0.16 75 1007.5
20260510022231 49 15 1.7 1.7 0.00 0.00 0.16 75 1007.5
20260510021231 49 37 1.7 1.7 0.00 0.00 0.16 75 1006.8
20260510020231 50 37 2.6 2.6 0.00 0.00 0.16 73 1006.8
20260510015232 52 29 2.6 2.6 0.00 0.00 0.16 70 1006.4
20260510014232 54 26 2.6 2.6 0.00 0.00 0.16 66 1006.1
20260510013231 56 23 1.7 1.7 0.00 0.00 0.16 65 1005.8
20260510012231 60 10 1.7 1.7 0.00 0.00 0.16 54 1005.4
20260510011231 63 12 1.7 1.7 0.00 0.00 0.16 45 1005.1
20260510010232 63 311 1.7 1.7 0.00 0.00 0.16 41 1004.7
20260510005731 63 311 2.6 2.6 0.00 0.00 0.16 41 1004.7
20260510004731 64 320 2.6 2.6 0.00 0.00 0.16 40 1004.4
20260510003733 64 318 2.6 2.6 0.00 0.00 0.16 39 1004.1
20260510002732 64 296 2.6 2.6 0.00 0.00 0.16 39 1004.1
20260510002232 64 329 2.6 2.6 0.00 0.00 0.16 40 1004.1
20260510001731 64 326 3.5 3.5 0.00 0.00 0.16 39 1004.1
20260510000732 65 318 3.5 3.5 0.00 0.00 0.16 38 1003.7
20260509235732 66 325 3.5 3.5 0.00 0.00 0.16 40 1003.7
20260509235232 66 329 3.5 3.5 0.00 0.00 0.16 40 1003.7
20260509234232 67 330 3.5 3.5 0.00 0.00 0.16 41 1003.4
20260509233231 67 312 2.6 2.6 0.00 0.00 0.16 42 1003.0
20260509232232 67 291 2.6 2.6 0.00 0.00 0.16 43 1003.0
20260509231232 67 299 3.5 3.5 0.00 0.00 0.16 42 1003.0
20260509230732 69 315 3.5 3.5 0.00 0.00 0.16 40 1002.7
20260509225732 69 318 2.6 2.6 0.00 0.00 0.16 40 1002.4
20260509224732 69 294 3.5 3.5 0.00 0.00 0.16 41 1002.4
20260509224231 69 294 3.5 3.5 0.00 0.00 0.16 41 1002.4
20260509223232 69 310 3.5 3.5 0.00 0.00 0.16 41 1002.0
20260509222232 69 289 3.5 3.5 0.00 0.00 0.16 42 1002.0
20260509221231 68 316 3.5 3.5 0.00 0.00 0.16 41 1001.7
20260509220232 69 311 3.5 3.5 0.00 0.00 0.16 41 1001.7
20260509215732 69 276 3.5 3.5 0.00 0.00 0.16 40 1001.7
20260509214732 69 301 3.5 3.5 0.00 0.00 0.16 40 1001.4
20260509214232 69 302 3.5 3.5 0.00 0.00 0.16 40 1001.4
20260509213232 69 271 3.5 3.5 0.00 0.00 0.16 41 1001.4
20260509212232 69 297 3.5 3.5 0.00 0.00 0.16 41 1001.0
20260509211232 68 290 3.5 3.5 0.00 0.00 0.17 43 1001.0
20260509210232 68 286 2.6 2.6 0.00 0.00 0.17 44 1001.4
20260509205232 68 284 1.7 1.7 0.00 0.00 0.17 45 1001.4
20260509204732 67 308 1.7 1.7 0.00 0.00 0.17 47 1001.4
20260509203732 65 306 1.7 1.7 0.01 0.00 0.17 65 1001.7
20260509203232 64 289 1.7 1.7 0.01 0.00 0.14 70 1001.7
20260509202232 63 270 1.7 1.7 0.01 0.00 0.14 73 1002.0
20260509201232 61 273 1.7 1.7 0.04 0.00 0.13 75 1002.0
20260509200732 60 236 1.7 1.7 0.04 0.00 0.13 78 1002.0
20260509195732 58 248 1.7 1.7 0.06 0.00 0.13 82 1002.0
20260509194733 55 247 1.7 1.7 0.09 0.00 0.12 87 1002.4
20260509193732 54 197 1.7 1.7 0.10 0.00 0.12 88 1002.4
20260509192733 54 256 1.7 1.7 0.25 0.00 0.26 86 1002.7
20260509191732 57 321 1.7 1.7 0.36 0.00 0.36 83 1002.7
20260509190732 58 322 2.6 2.6 0.36 0.00 0.33 83 1003.0
20260509185732 59 237 2.6 2.6 0.25 0.00 0.09 82 1001.4
20260509184733 63 231 2.6 2.6 0.07 0.00 0.09 75 1001.4
20260509184232 64 216 2.6 2.6 0.07 0.00 0.02 65 1001.0
20260509183733 64 223 2.6 2.6 0.03 0.00 0.02 64 1001.0
20260509182732 65 212 2.6 2.6 0.00 0.00 0.02 62 1001.0
20260509181733 65 193 3.5 3.5 0.00 0.00 0.02 64 1001.0
20260509180732 66 187 3.5 3.5 0.00 0.00 0.02 63 1001.4
20260509180233 66 187 3.5 3.5 0.00 0.00 0.02 63 1001.4
20260509175732 65 182 3.5 3.5 0.00 0.00 0.02 65 1001.4
20260509174732 65 179 3.5 3.5 0.00 0.00 0.02 64 1001.4
20260509173732 65 176 3.5 3.5 0.00 0.00 0.02 65 1001.4
20260509172732 64 173 2.6 2.6 0.00 0.00 0.02 68 1001.7
20260509171733 62 171 2.6 2.6 0.00 0.00 0.02 71 1001.7
20260509170732 62 181 2.6 2.6 0.00 0.00 0.02 72 1001.7
20260509170232 62 206 3.5 3.5 0.01 0.00 0.02 71 1002.0
20260509165232 63 172 3.5 3.5 0.01 0.00 0.02 71 1002.4
20260509164232 62 188 3.5 3.5 0.01 0.00 0.02 71 1002.0
20260509163232 62 176 2.6 2.6 0.01 0.00 0.02 71 1002.4
20260509162233 61 185 2.6 2.6 0.01 0.00 0.02 75 1002.4
20260509161733 61 185 2.6 2.6 0.01 0.00 0.02 75 1002.4
20260509160733 59 171 2.6 2.6 0.01 0.00 0.02 81 1002.4
20260509155732 59 162 2.6 2.6 0.01 0.00 0.01 79 1002.7
20260509154733 57 155 2.6 2.6 0.01 0.00 0.01 82 1002.7
20260509154233 57 169 2.6 2.6 0.01 0.00 0.01 82 1003.0
20260509153233 58 174 2.6 2.6 0.01 0.00 0.01 82 1003.7
20260509152233 56 165 1.7 1.7 0.01 0.00 0.01 85 1003.0
20260509151733 56 165 1.7 1.7 0.01 0.00 0.01 85 1003.0
20260509150733 55 162 1.7 1.7 0.00 0.00 0.00 87 1003.4
20260509150233 55 173 0.9 0.9 0.00 0.00 0.00 87 1004.1
20260509145233 55 257 0.9 0.9 0.00 0.00 0.00 85 1005.1
20260509144732 56 275 0.9 0.9 0.00 0.00 0.00 84 1005.1